CPA507 RJBB-VHHH

Flight info

Callsign CPA507
Flight time N/A
Altitude 38000
Route OBLUR Y236 IVROG Y340 RUSUD Y75 IGBOD Y34 HKC Y50 IGMON A1 ELATO V522 ABBEY
Aircraft A35K/H-SDE2E3GHIJ3J4J5LM1ORWXY/LB1D1

Departure

Time 2026-05-06 14:29
Airport Kansai International Airport (RJBB)

Arrival

Time N/A
Airport Hong Kong International Airport (VHHH)
Time Latitude Longitude Altitude Speed Heading
2026-05-06 14:10 34.43078 135.24115 28 ft 0 kts 321°
2026-05-06 14:18 34.43073 135.24120 28 ft 4 kts 321°
2026-05-06 14:18 34.43052 135.24141 27 ft 4 kts 320°
2026-05-06 14:19 34.43033 135.24160 28 ft 3 kts 321°
2026-05-06 14:19 34.43016 135.24171 28 ft 4 kts 36°
2026-05-06 14:19 34.43001 135.24147 28 ft 4 kts 60°
2026-05-06 14:19 34.42992 135.24129 28 ft 1 kts 51°
2026-05-06 14:20 34.42990 135.24126 28 ft 0 kts 51°
2026-05-06 14:23 34.42991 135.24128 28 ft 1 kts 51°
2026-05-06 14:24 34.43003 135.24147 28 ft 3 kts 57°
2026-05-06 14:24 34.43006 135.24190 28 ft 8 kts 98°
2026-05-06 14:24 34.43001 135.24269 28 ft 10 kts 71°
2026-05-06 14:24 34.43043 135.24353 28 ft 13 kts 52°
2026-05-06 14:25 34.43105 135.24447 28 ft 15 kts 50°
2026-05-06 14:25 34.43178 135.24554 28 ft 18 kts 51°
2026-05-06 14:25 34.43260 135.24675 28 ft 20 kts 51°
2026-05-06 14:25 34.43351 135.24810 28 ft 22 kts 51°
2026-05-06 14:26 34.43451 135.24957 28 ft 23 kts 51°
2026-05-06 14:26 34.43553 135.25111 28 ft 23 kts 51°
2026-05-06 14:26 34.43629 135.25224 28 ft 18 kts 51°
2026-05-06 14:26 34.43712 135.25350 28 ft 20 kts 51°
2026-05-06 14:27 34.43802 135.25485 28 ft 16 kts 51°
2026-05-06 14:27 34.43842 135.25612 28 ft 18 kts 94°
2026-05-06 14:27 34.43832 135.25730 28 ft 12 kts 102°
2026-05-06 14:27 34.43774 135.25816 28 ft 15 kts 140°
2026-05-06 14:28 34.43705 135.25847 28 ft 8 kts 201°
2026-05-06 14:28 34.43665 135.25797 27 ft 13 kts 230°
2026-05-06 14:28 34.43482 135.25526 28 ft 78 kts 231°
2026-05-06 14:28 34.42991 135.24795 29 ft 143 kts 231°
2026-05-06 14:29 34.42261 135.23719 329 ft 170 kts 230°
2026-05-06 14:29 34.41535 135.22654 1209 ft 164 kts 233°
2026-05-06 14:29 34.40852 135.21436 1557 ft 190 kts 237°
2026-05-06 14:29 34.40076 135.19970 1790 ft 223 kts 237°
2026-05-06 14:30 34.39183 135.18321 2140 ft 249 kts 236°
2026-05-06 14:30 34.38201 135.16541 2853 ft 258 kts 236°
2026-05-06 14:30 34.37191 135.14719 3680 ft 263 kts 236°
2026-05-06 14:30 34.36371 135.12731 4438 ft 268 kts 255°
2026-05-06 14:31 34.36380 135.10479 5259 ft 271 kts 281°
2026-05-06 14:31 34.36818 135.08250 6101 ft 274 kts 283°
2026-05-06 14:31 34.37298 135.06007 6997 ft 276 kts 283°
2026-05-06 14:31 34.37770 135.03750 7973 ft 277 kts 282°
2026-05-06 14:32 34.38227 135.01509 8878 ft 279 kts 282°
2026-05-06 14:32 34.38689 134.99217 9751 ft 283 kts 282°
2026-05-06 14:32 34.39157 134.96880 10535 ft 290 kts 281°
2026-05-06 14:32 34.39642 134.94423 10922 ft 310 kts 281°
2026-05-06 14:33 34.39897 134.91751 11233 ft 330 kts 265°
2026-05-06 14:33 34.39289 134.89030 11547 ft 345 kts 243°
2026-05-06 14:33 34.38109 134.86447 12067 ft 356 kts 239°
2026-05-06 14:33 34.36838 134.83855 12755 ft 360 kts 239°
2026-05-06 14:34 34.35574 134.81262 13477 ft 364 kts 240°
2026-05-06 14:34 34.34292 134.78610 14183 ft 367 kts 240°
2026-05-06 14:34 34.33002 134.75927 14846 ft 371 kts 240°
2026-05-06 14:34 34.31704 134.73219 15528 ft 373 kts 240°
2026-05-06 14:35 34.30398 134.70489 16197 ft 376 kts 241°
2026-05-06 14:35 34.29081 134.67744 16836 ft 379 kts 241°
2026-05-06 14:35 34.27579 134.65102 17460 ft 384 kts 233°
2026-05-06 14:35 34.25871 134.62589 18036 ft 389 kts 232°
2026-05-06 14:36 34.24144 134.60115 18651 ft 392 kts 232°
2026-05-06 14:36 34.22386 134.57598 19367 ft 392 kts 232°
2026-05-06 14:36 34.20629 134.55083 20069 ft 392 kts 232°
2026-05-06 14:36 34.18877 134.52569 20790 ft 391 kts 231°
2026-05-06 14:37 34.17118 134.50047 21368 ft 394 kts 231°
2026-05-06 14:37 34.15354 134.47517 21978 ft 394 kts 231°
2026-05-06 14:37 34.13585 134.44985 22560 ft 395 kts 231°
2026-05-06 14:37 34.11812 134.42442 23126 ft 396 kts 231°
2026-05-06 14:38 34.10058 134.39931 23685 ft 397 kts 231°
2026-05-06 14:38 34.08280 134.37388 24264 ft 397 kts 231°
2026-05-06 14:38 34.06501 134.34830 24819 ft 398 kts 231°
2026-05-06 14:38 34.04727 134.32255 25348 ft 400 kts 231°
2026-05-06 14:39 34.02951 134.29666 25911 ft 402 kts 231°
2026-05-06 14:39 34.01164 134.27059 26422 ft 404 kts 231°
2026-05-06 14:39 33.99370 134.24441 26900 ft 407 kts 231°
2026-05-06 14:39 33.97553 134.21798 27368 ft 410 kts 231°
2026-05-06 14:40 33.95733 134.19156 27968 ft 410 kts 231°
2026-05-06 14:40 33.93913 134.16522 28559 ft 409 kts 231°
2026-05-06 14:40 33.92109 134.13911 29024 ft 412 kts 231°
2026-05-06 14:40 33.90264 134.11254 29434 ft 415 kts 231°
2026-05-06 14:41 33.88397 134.08588 29911 ft 415 kts 231°
2026-05-06 14:41 33.86526 134.05932 30327 ft 418 kts 231°
2026-05-06 14:41 33.84660 134.03233 30703 ft 420 kts 232°
2026-05-06 14:41 33.82790 134.00517 31081 ft 422 kts 232°
2026-05-06 14:42 33.80914 133.97791 31400 ft 425 kts 231°
2026-05-06 14:42 33.79024 133.95058 31886 ft 424 kts 231°
2026-05-06 14:42 33.77162 133.92381 32438 ft 421 kts 231°
2026-05-06 14:42 33.75318 133.89690 33016 ft 415 kts 233°
2026-05-06 14:43 33.73583 133.86921 33343 ft 415 kts 234°
2026-05-06 14:43 33.71924 133.84096 33770 ft 413 kts 236°
2026-05-06 14:43 33.70296 133.81260 34255 ft 410 kts 236°
2026-05-06 14:43 33.68673 133.78451 34627 ft 409 kts 235°
2026-05-06 14:44 33.67043 133.75673 34964 ft 407 kts 235°
2026-05-06 14:44 33.65408 133.72902 35258 ft 405 kts 234°
2026-05-06 14:44 33.63887 133.70116 35561 ft 405 kts 239°
2026-05-06 14:45 33.61102 133.64242 36201 ft 404 kts 240°
2026-05-06 14:45 33.59742 133.61292 36487 ft 403 kts 240°
2026-05-06 14:45 33.58389 133.58348 36756 ft 403 kts 240°
2026-05-06 14:45 33.57036 133.55411 37122 ft 400 kts 240°
2026-05-06 14:46 33.55698 133.52513 37573 ft 395 kts 240°
2026-05-06 14:46 33.54374 133.49652 37937 ft 391 kts 240°
2026-05-06 14:46 33.53068 133.46840 38112 ft 393 kts 240°
2026-05-06 14:47 33.50389 133.41084 38128 ft 396 kts 240°
2026-05-06 14:47 33.47700 133.35318 38127 ft 397 kts 240°
2026-05-06 14:48 33.45008 133.29552 38146 ft 397 kts 240°
2026-05-06 14:48 33.42330 133.23806 38116 ft 398 kts 240°
2026-05-06 14:49 33.39621 133.18028 38117 ft 398 kts 239°
2026-05-06 14:49 33.36909 133.12247 38115 ft 399 kts 239°
2026-05-06 14:50 33.34187 133.06456 38122 ft 400 kts 239°
2026-05-06 14:50 33.31477 133.00701 38118 ft 400 kts 239°
2026-05-06 14:51 33.28744 132.94905 38117 ft 400 kts 239°
2026-05-06 14:51 33.26005 132.89114 38110 ft 401 kts 239°
2026-05-06 14:52 33.23264 132.83316 38105 ft 401 kts 239°
2026-05-06 14:52 33.20530 132.77554 38108 ft 401 kts 239°
2026-05-06 14:53 33.17780 132.71757 38107 ft 401 kts 239°
2026-05-06 14:53 33.14705 132.66201 38113 ft 401 kts 235°
2026-05-06 14:54 33.11508 132.60745 38103 ft 402 kts 234°
2026-05-06 14:54 33.08305 132.55336 38101 ft 402 kts 234°
2026-05-06 14:55 33.05078 132.49882 38096 ft 402 kts 234°
2026-05-06 14:55 33.01852 132.44426 38101 ft 403 kts 234°
2026-05-06 14:56 32.98626 132.38974 38101 ft 403 kts 234°
2026-05-06 14:56 32.95263 132.33634 38096 ft 403 kts 231°
2026-05-06 14:57 32.91641 132.28595 38100 ft 404 kts 230°
2026-05-06 14:57 32.87975 132.23522 38099 ft 404 kts 230°
2026-05-06 14:58 32.84350 132.18404 38100 ft 404 kts 230°
2026-05-06 14:58 32.80742 132.13264 38100 ft 405 kts 230°
2026-05-06 14:59 32.77157 132.08154 38104 ft 405 kts 230°
2026-05-06 14:59 32.73539 132.03008 38103 ft 406 kts 230°
2026-05-06 15:00 32.69912 131.97859 38106 ft 407 kts 230°
2026-05-06 15:00 32.66260 131.92685 38103 ft 410 kts 230°
2026-05-06 15:01 32.62605 131.87513 38098 ft 412 kts 230°
2026-05-06 15:01 32.58919 131.82305 38100 ft 412 kts 230°
2026-05-06 15:02 32.55229 131.77101 38098 ft 412 kts 230°
2026-05-06 15:02 32.51542 131.71896 38101 ft 412 kts 230°
2026-05-06 15:03 32.47878 131.66736 38088 ft 412 kts 230°
2026-05-06 15:03 32.44184 131.61543 38092 ft 412 kts 230°
2026-05-06 15:04 32.40482 131.56354 38091 ft 413 kts 230°
2026-05-06 15:04 32.36779 131.51152 38090 ft 414 kts 230°
2026-05-06 15:05 32.33091 131.45979 38093 ft 414 kts 230°
2026-05-06 15:05 32.29378 131.40783 38100 ft 414 kts 230°
2026-05-06 15:06 32.25657 131.35588 38100 ft 415 kts 230°
2026-05-06 15:06 32.21927 131.30389 38098 ft 415 kts 230°
2026-05-06 15:07 32.18219 131.25229 38105 ft 415 kts 230°
2026-05-06 15:07 32.14491 131.20035 38104 ft 415 kts 230°
2026-05-06 15:08 32.10749 131.14842 38106 ft 416 kts 230°
2026-05-06 15:08 32.06999 131.09637 38105 ft 417 kts 230°
2026-05-06 15:09 32.03264 131.04469 38100 ft 417 kts 230°
2026-05-06 15:09 31.99503 130.99278 38097 ft 416 kts 230°
2026-05-06 15:10 31.95749 130.94089 38099 ft 416 kts 229°
2026-05-06 15:10 31.92002 130.88911 38104 ft 415 kts 229°
2026-05-06 15:11 31.88272 130.83765 38102 ft 417 kts 229°
2026-05-06 15:11 31.84507 130.78579 38097 ft 417 kts 229°
2026-05-06 15:12 31.80742 130.73406 38106 ft 416 kts 229°
2026-05-06 15:12 31.76985 130.68242 38099 ft 416 kts 229°
2026-05-06 15:13 31.73246 130.63124 38101 ft 416 kts 229°
2026-05-06 15:13 31.69474 130.57965 38100 ft 417 kts 229°
2026-05-06 15:14 31.65824 130.52616 38107 ft 424 kts 232°
2026-05-06 15:14 31.62228 130.47008 38106 ft 435 kts 233°
2026-05-06 15:15 31.58526 130.41284 38094 ft 446 kts 233°
2026-05-06 15:15 31.54723 130.35487 38095 ft 456 kts 233°
2026-05-06 15:16 31.50834 130.29597 38093 ft 457 kts 233°
2026-05-06 15:16 31.46944 130.23723 38092 ft 456 kts 233°
2026-05-06 15:17 31.43052 130.17850 38087 ft 456 kts 233°
2026-05-06 15:17 31.39163 130.11982 38092 ft 456 kts 233°
2026-05-06 15:18 31.35297 130.06162 38093 ft 456 kts 232°
2026-05-06 15:18 31.31402 130.00311 38082 ft 456 kts 232°
2026-05-06 15:19 31.27503 129.94457 38090 ft 458 kts 233°
2026-05-06 15:19 31.23559 129.88540 38081 ft 463 kts 233°
2026-05-06 15:20 31.19614 129.82643 38082 ft 463 kts 233°
2026-05-06 15:20 31.15640 129.76709 38082 ft 464 kts 233°
2026-05-06 15:21 31.11669 129.70783 38082 ft 464 kts 233°
2026-05-06 15:21 31.07688 129.64850 38081 ft 464 kts 233°
2026-05-06 15:22 31.03727 129.58960 38082 ft 465 kts 233°
2026-05-06 15:22 30.99732 129.53027 38082 ft 465 kts 233°
2026-05-06 15:23 30.95731 129.47098 38082 ft 465 kts 233°
2026-05-06 15:23 30.91728 129.41170 38082 ft 466 kts 233°
2026-05-06 15:24 30.87717 129.35239 38081 ft 466 kts 233°
2026-05-06 15:24 30.83726 129.29348 38082 ft 466 kts 233°
2026-05-06 15:25 30.79704 129.23420 38082 ft 467 kts 233°
2026-05-06 15:25 30.75671 129.17473 38082 ft 468 kts 233°
2026-05-06 15:26 30.71718 129.11453 38076 ft 469 kts 234°
2026-05-06 15:26 30.67803 129.05443 38072 ft 470 kts 234°
2026-05-06 15:27 30.63839 128.99395 38073 ft 471 kts 234°
2026-05-06 15:27 30.59851 128.93339 38073 ft 473 kts 234°
2026-05-06 15:28 30.55840 128.87270 38073 ft 475 kts 234°
2026-05-06 15:28 30.51839 128.81223 38046 ft 476 kts 234°
2026-05-06 15:29 30.47795 128.75124 38045 ft 478 kts 234°
2026-05-06 15:29 30.43734 128.69003 38045 ft 480 kts 234°
2026-05-06 15:30 30.39655 128.62862 38045 ft 482 kts 235°
2026-05-06 15:30 30.35588 128.56747 38045 ft 484 kts 235°
2026-05-06 15:31 30.31465 128.50567 38045 ft 485 kts 235°
2026-05-06 15:31 30.27327 128.44373 38045 ft 488 kts 235°
2026-05-06 15:32 30.21120 128.35084 38045 ft 490 kts 235°
2026-05-06 15:32 30.16937 128.28843 38045 ft 492 kts 236°
2026-05-06 15:33 30.12742 128.22590 38045 ft 493 kts 236°
2026-05-06 15:33 30.08534 128.16332 38045 ft 494 kts 236°
2026-05-06 15:34 30.04316 128.10071 38045 ft 494 kts 236°
2026-05-06 15:34 30.00120 128.03850 38045 ft 495 kts 236°
2026-05-06 15:35 29.95887 127.97584 38045 ft 495 kts 236°
2026-05-06 15:35 29.91656 127.91328 38045 ft 495 kts 236°
2026-05-06 15:36 29.87418 127.85070 38045 ft 495 kts 236°
2026-05-06 15:36 29.83115 127.78937 38045 ft 496 kts 233°
2026-05-06 15:37 29.78584 127.72943 38045 ft 496 kts 232°
2026-05-06 15:37 29.74045 127.66962 38036 ft 496 kts 232°
2026-05-06 15:38 29.69543 127.60968 38036 ft 495 kts 233°
2026-05-06 15:38 29.65087 127.55012 38037 ft 494 kts 233°
2026-05-06 15:39 29.60608 127.49026 38036 ft 494 kts 233°
2026-05-06 15:39 29.56166 127.43022 38036 ft 492 kts 235°
2026-05-06 15:40 29.51944 127.36863 38036 ft 490 kts 236°
2026-05-06 15:40 29.47791 127.30731 38036 ft 490 kts 236°
2026-05-06 15:41 29.43574 127.24590 38036 ft 489 kts 236°
2026-05-06 15:41 29.39343 127.18484 38036 ft 489 kts 236°
2026-05-06 15:42 29.35111 127.12395 38036 ft 488 kts 236°
2026-05-06 15:42 29.30912 127.06362 38036 ft 487 kts 236°
2026-05-06 15:43 29.26688 127.00296 38036 ft 487 kts 236°
2026-05-06 15:43 29.22464 126.94241 38036 ft 486 kts 236°
2026-05-06 15:44 29.18246 126.88202 38036 ft 486 kts 236°
2026-05-06 15:44 29.14049 126.82206 38036 ft 485 kts 236°
2026-05-06 15:45 29.09828 126.76185 38036 ft 485 kts 236°
2026-05-06 15:45 29.05612 126.70172 38026 ft 484 kts 236°
2026-05-06 15:46 29.01395 126.64174 38043 ft 484 kts 236°
2026-05-06 15:46 28.97179 126.58183 38045 ft 484 kts 236°
2026-05-06 15:47 28.92921 126.52307 38045 ft 484 kts 234°
2026-05-06 15:47 28.88549 126.46464 38036 ft 484 kts 234°
2026-05-06 15:48 28.84176 126.40614 38036 ft 484 kts 234°
2026-05-06 15:48 28.79852 126.34810 38036 ft 483 kts 235°
2026-05-06 15:49 28.75504 126.28968 38036 ft 483 kts 235°
2026-05-06 15:49 28.71157 126.23134 38036 ft 483 kts 235°
2026-05-06 15:50 28.66814 126.17315 38036 ft 482 kts 235°
2026-05-06 15:50 28.62482 126.11506 38036 ft 481 kts 236°
2026-05-06 15:51 28.58302 126.05643 38035 ft 479 kts 237°
2026-05-06 15:51 28.54150 125.99712 38027 ft 479 kts 237°
2026-05-06 15:52 28.49983 125.93803 38028 ft 478 kts 237°
2026-05-06 15:52 28.45812 125.87926 38026 ft 478 kts 237°
2026-05-06 15:53 28.41656 125.82097 38026 ft 478 kts 237°
2026-05-06 15:53 28.37476 125.76238 38032 ft 477 kts 237°
2026-05-06 15:54 28.33297 125.70385 38025 ft 477 kts 237°
2026-05-06 15:54 28.29116 125.64538 38026 ft 477 kts 237°
2026-05-06 15:55 28.24935 125.58701 38025 ft 477 kts 237°
2026-05-06 15:55 28.20779 125.52904 38025 ft 477 kts 237°
2026-05-06 15:56 28.16590 125.47071 38029 ft 477 kts 237°
2026-05-06 15:56 28.12398 125.41245 38026 ft 477 kts 237°
2026-05-06 15:57 28.08210 125.35428 38026 ft 476 kts 237°
2026-05-06 15:57 28.04050 125.29657 38027 ft 476 kts 237°
2026-05-06 15:58 27.99861 125.23852 38019 ft 476 kts 237°
2026-05-06 15:58 27.95670 125.18059 38017 ft 474 kts 237°
2026-05-06 15:59 27.91495 125.12296 38017 ft 473 kts 237°
2026-05-06 15:59 27.87354 125.06583 38017 ft 473 kts 236°
2026-05-06 16:00 27.83188 125.00842 38017 ft 472 kts 236°
2026-05-06 16:00 27.79025 124.95111 38017 ft 471 kts 236°
2026-05-06 16:01 27.74863 124.89392 37999 ft 471 kts 236°
2026-05-06 16:01 27.70735 124.83730 37999 ft 470 kts 236°
2026-05-06 16:02 27.66572 124.78026 37999 ft 470 kts 236°
2026-05-06 16:02 27.62412 124.72334 37999 ft 470 kts 236°
2026-05-06 16:03 27.58253 124.66658 37999 ft 470 kts 236°
2026-05-06 16:03 27.54126 124.61008 37999 ft 470 kts 236°
2026-05-06 16:04 27.49971 124.55328 37999 ft 469 kts 236°
2026-05-06 16:04 27.45818 124.49663 37999 ft 469 kts 236°
2026-05-06 16:05 27.41658 124.43999 37999 ft 469 kts 236°
2026-05-06 16:05 27.37527 124.38381 37999 ft 469 kts 236°
2026-05-06 16:06 27.33368 124.32733 37999 ft 469 kts 236°
2026-05-06 16:06 27.29210 124.27094 37999 ft 468 kts 236°
2026-05-06 16:07 27.25051 124.21462 37999 ft 468 kts 236°
2026-05-06 16:07 27.20889 124.15829 37999 ft 468 kts 236°
2026-05-06 16:08 27.16754 124.10243 37999 ft 468 kts 236°
2026-05-06 16:08 27.12585 124.04617 37999 ft 468 kts 236°
2026-05-06 16:09 27.08422 123.99006 37999 ft 468 kts 236°
2026-05-06 16:09 27.04235 123.93425 37998 ft 467 kts 235°
2026-05-06 16:10 27.00073 123.87915 38000 ft 466 kts 234°
2026-05-06 16:10 26.95890 123.82374 37998 ft 465 kts 234°
2026-05-06 16:11 26.91711 123.76839 37999 ft 465 kts 235°
2026-05-06 16:11 26.87532 123.71305 37999 ft 465 kts 235°
2026-05-06 16:12 26.83355 123.65786 37999 ft 464 kts 234°
2026-05-06 16:12 26.79205 123.60310 37999 ft 464 kts 234°
2026-05-06 16:13 26.75022 123.54797 37988 ft 465 kts 234°
2026-05-06 16:13 26.70837 123.49289 37990 ft 464 kts 234°
2026-05-06 16:14 26.66653 123.43788 37990 ft 464 kts 234°
2026-05-06 16:14 26.62496 123.38330 37989 ft 464 kts 234°
2026-05-06 16:15 26.58304 123.32830 37990 ft 464 kts 234°
2026-05-06 16:15 26.54115 123.27342 37990 ft 464 kts 234°
2026-05-06 16:16 26.49923 123.21858 37990 ft 464 kts 234°
2026-05-06 16:16 26.45757 123.16417 37981 ft 465 kts 234°
2026-05-06 16:17 26.41556 123.10937 37980 ft 465 kts 234°
2026-05-06 16:17 26.37354 123.05460 37965 ft 464 kts 234°
2026-05-06 16:18 26.33152 122.99990 37978 ft 464 kts 234°
2026-05-06 16:18 26.28970 122.94564 37980 ft 464 kts 234°
2026-05-06 16:19 26.24765 122.89102 37962 ft 464 kts 234°
2026-05-06 16:19 26.20556 122.83640 37977 ft 465 kts 233°
2026-05-06 16:20 26.16343 122.78180 37977 ft 465 kts 233°
2026-05-06 16:20 26.12152 122.72763 37977 ft 465 kts 233°
2026-05-06 16:21 26.07931 122.67313 37958 ft 465 kts 233°
2026-05-06 16:21 26.03702 122.61857 37958 ft 465 kts 233°
2026-05-06 16:22 25.99477 122.56416 37966 ft 465 kts 233°
2026-05-06 16:22 25.95269 122.51003 37978 ft 466 kts 233°
2026-05-06 16:23 25.91031 122.45560 37977 ft 466 kts 233°
2026-05-06 16:23 25.86798 122.40115 37961 ft 466 kts 233°
2026-05-06 16:24 25.82562 122.34675 37968 ft 466 kts 233°
2026-05-06 16:24 25.78318 122.29234 37976 ft 466 kts 233°
2026-05-06 16:25 25.74104 122.23841 37978 ft 466 kts 233°
2026-05-06 16:25 25.69855 122.18413 37980 ft 466 kts 233°
2026-05-06 16:26 25.65607 122.12984 37959 ft 466 kts 233°
2026-05-06 16:26 25.61361 122.07568 37958 ft 466 kts 233°
2026-05-06 16:27 25.57107 122.02145 37967 ft 466 kts 233°
2026-05-06 16:27 25.52885 121.96759 37978 ft 466 kts 233°
2026-05-06 16:28 25.48628 121.91343 37962 ft 467 kts 233°
2026-05-06 16:28 25.44362 121.85934 37978 ft 466 kts 233°
2026-05-06 16:29 25.40095 121.80533 37978 ft 466 kts 233°
2026-05-06 16:29 25.35856 121.75166 37964 ft 467 kts 233°
2026-05-06 16:30 25.32997 121.71549 37969 ft 467 kts 233°
2026-05-06 16:30 25.27304 121.64353 37977 ft 467 kts 233°
2026-05-06 16:31 25.23024 121.58954 37966 ft 467 kts 233°
2026-05-06 16:31 25.18768 121.53599 37970 ft 467 kts 233°
2026-05-06 16:32 25.14505 121.48192 37956 ft 467 kts 233°
2026-05-06 16:32 25.10316 121.42730 37970 ft 466 kts 234°
2026-05-06 16:33 25.06133 121.37266 37961 ft 466 kts 234°
2026-05-06 16:34 24.99861 121.29135 37970 ft 466 kts 233°
2026-05-06 16:34 24.95650 121.23696 37957 ft 467 kts 233°
2026-05-06 16:35 24.91432 121.18252 37960 ft 467 kts 233°
2026-05-06 16:35 24.87212 121.12814 37963 ft 467 kts 233°
2026-05-06 16:36 24.83703 121.08300 37968 ft 467 kts 233°
2026-05-06 16:36 24.79483 121.02870 37977 ft 467 kts 233°
2026-05-06 16:37 24.75257 120.97434 37976 ft 467 kts 233°
2026-05-06 16:37 24.71064 120.92049 37982 ft 467 kts 233°
2026-05-06 16:38 24.66840 120.86626 37979 ft 467 kts 233°
2026-05-06 16:38 24.62605 120.81199 37980 ft 467 kts 233°
2026-05-06 16:39 24.58368 120.75777 37989 ft 468 kts 233°
2026-05-06 16:39 24.54129 120.70420 37991 ft 469 kts 232°
2026-05-06 16:40 24.49604 120.65249 37990 ft 470 kts 230°
2026-05-06 16:40 24.45006 120.60132 37990 ft 470 kts 230°
2026-05-06 16:41 24.40438 120.54989 37990 ft 471 kts 230°
2026-05-06 16:41 24.35890 120.49824 37989 ft 470 kts 231°
2026-05-06 16:42 24.31381 120.44691 37990 ft 471 kts 231°
2026-05-06 16:42 24.26841 120.39529 37990 ft 471 kts 230°
2026-05-06 16:43 24.22288 120.34366 37990 ft 471 kts 230°
2026-05-06 16:43 24.17731 120.29209 37990 ft 471 kts 230°
2026-05-06 16:44 24.13209 120.24080 37990 ft 471 kts 231°
2026-05-06 16:44 24.08651 120.18916 37990 ft 472 kts 230°
2026-05-06 16:45 24.04087 120.13757 37990 ft 472 kts 230°
2026-05-06 16:45 23.99519 120.08603 37989 ft 472 kts 230°
2026-05-06 16:46 23.94982 120.03495 37990 ft 472 kts 230°
2026-05-06 16:46 23.90415 119.98346 37990 ft 472 kts 230°
2026-05-06 16:47 23.85843 119.93203 37990 ft 472 kts 230°
2026-05-06 16:47 23.81268 119.88064 37989 ft 472 kts 230°
2026-05-06 16:48 23.76690 119.82925 37989 ft 472 kts 230°
2026-05-06 16:48 23.72144 119.77826 37990 ft 472 kts 230°
2026-05-06 16:49 23.67560 119.72698 37990 ft 472 kts 230°
2026-05-06 16:49 23.62973 119.67568 37990 ft 472 kts 230°
2026-05-06 16:50 23.58725 119.62172 37993 ft 466 kts 240°
2026-05-06 16:50 23.55197 119.56321 37990 ft 465 kts 242°
2026-05-06 16:51 23.51759 119.50360 37989 ft 464 kts 242°
2026-05-06 16:51 23.48329 119.44396 37989 ft 465 kts 242°
2026-05-06 16:52 23.44880 119.38438 37990 ft 465 kts 242°
2026-05-06 16:52 23.41441 119.32525 37989 ft 465 kts 242°
2026-05-06 16:53 23.37975 119.26574 37990 ft 466 kts 241°
2026-05-06 16:53 23.34509 119.20624 37989 ft 465 kts 241°
2026-05-06 16:54 23.31039 119.14679 37990 ft 465 kts 241°
2026-05-06 16:54 23.27566 119.08737 37990 ft 465 kts 241°
2026-05-06 16:55 23.24112 119.02831 37990 ft 466 kts 241°
2026-05-06 16:55 23.20629 118.96884 37990 ft 466 kts 241°
2026-05-06 16:56 23.17152 118.90953 37989 ft 466 kts 241°
2026-05-06 16:56 23.13658 118.85000 37989 ft 467 kts 241°
2026-05-06 16:57 23.10165 118.79058 37990 ft 467 kts 241°
2026-05-06 16:57 23.06695 118.73158 37989 ft 467 kts 241°
2026-05-06 16:58 23.03197 118.67216 37990 ft 467 kts 241°
2026-05-06 16:58 22.99694 118.61280 37990 ft 467 kts 240°
2026-05-06 16:59 22.96190 118.55344 37989 ft 467 kts 240°
2026-05-06 16:59 22.92696 118.49456 37990 ft 467 kts 240°
2026-05-06 17:00 22.89172 118.43533 37981 ft 467 kts 240°
2026-05-06 17:00 22.85644 118.37610 37981 ft 468 kts 240°
2026-05-06 17:01 22.82110 118.31685 37981 ft 468 kts 240°
2026-05-06 17:01 22.78595 118.25797 37980 ft 468 kts 240°
2026-05-06 17:02 22.75056 118.19874 37981 ft 469 kts 240°
2026-05-06 17:02 22.71508 118.13946 37980 ft 469 kts 240°
2026-05-06 17:03 22.67959 118.08024 37980 ft 469 kts 240°
2026-05-06 17:03 22.64430 118.02138 37981 ft 469 kts 240°
2026-05-06 17:04 22.60872 117.96211 37982 ft 470 kts 240°
2026-05-06 17:04 22.57317 117.90278 37980 ft 470 kts 240°